Time,TemperatureF,DewpointF,PressureIn,WindDirection,WindDirectionDegrees,WindSpeedMPH,WindSpeedGustMPH,Humidity,HourlyPrecipIn,Conditions,Clouds,dailyrainin,SoftwareType,DateUTC
2013-06-14 00:00:00,46.9,33.8,30.04,WSW,248,0.0,3.3,60,0.00,,,0.00,WUHU216HW,2013-06-14 06:00:00,
2013-06-14 00:05:00,46.5,33.4,30.04,WSW,248,0.0,3.3,60,0.00,,,0.00,WUHU216HW,2013-06-14 06:05:00,
2013-06-14 00:10:00,46.4,33.6,30.04,West,270,0.0,3.1,61,0.00,,,0.00,WUHU216HW,2013-06-14 06:10:00,
2013-06-14 00:15:00,46.2,33.8,30.04,WSW,248,2.4,2.4,62,0.00,,,0.00,WUHU216HW,2013-06-14 06:15:00,
2013-06-14 00:20:00,46.0,33.3,30.04,WSW,248,0.0,3.3,61,0.00,,,0.00,WUHU216HW,2013-06-14 06:20:00,
2013-06-14 00:25:00,46.2,33.8,30.04,West,270,1.3,3.3,62,0.00,,,0.00,WUHU216HW,2013-06-14 06:25:00,
2013-06-14 00:30:00,46.2,33.4,30.05,WSW,248,3.3,3.3,61,0.00,,,0.00,WUHU216HW,2013-06-14 06:30:00,
2013-06-14 00:35:00,45.8,33.5,30.04,West,270,0.0,3.3,62,0.00,,,0.00,WUHU216HW,2013-06-14 06:35:00,
2013-06-14 00:40:00,45.6,33.3,30.04,WSW,248,0.0,0.0,62,0.00,,,0.00,WUHU216HW,2013-06-14 06:40:00,
2013-06-14 00:45:00,45.3,33.4,30.04,West,270,0.0,2.0,63,0.00,,,0.00,WUHU216HW,2013-06-14 06:45:00,
2013-06-14 00:50:00,45.5,33.6,30.04,West,270,0.0,2.6,63,0.00,,,0.00,WUHU216HW,2013-06-14 06:50:00,
2013-06-14 00:55:00,45.6,33.3,30.04,West,270,0.0,2.6,62,0.00,,,0.00,WUHU216HW,2013-06-14 06:55:00,
2013-06-14 01:00:00,45.6,33.3,30.04,West,270,2.2,2.2,62,0.00,,,0.00,WUHU216HW,2013-06-14 07:00:00,
2013-06-14 01:05:00,45.3,33.0,30.04,West,270,2.0,2.2,62,0.00,,,0.00,WUHU216HW,2013-06-14 07:05:00,
2013-06-14 01:10:00,45.1,32.8,30.04,West,270,1.7,2.2,62,0.00,,,0.00,WUHU216HW,2013-06-14 07:10:00,
2013-06-14 01:15:00,44.9,33.0,30.04,WSW,248,0.0,1.7,63,0.00,,,0.00,WUHU216HW,2013-06-14 07:15:00,
2013-06-14 01:21:00,44.4,32.5,30.04,WSW,248,0.0,0.0,63,0.00,,,0.00,WUHU216HW,2013-06-14 07:21:00,
2013-06-14 01:26:00,43.3,32.5,30.04,SW,225,0.0,0.0,66,0.00,,,0.00,WUHU216HW,2013-06-14 07:26:00,
2013-06-14 01:31:00,42.4,32.2,30.04,SW,225,0.0,0.0,67,0.00,,,0.00,WUHU216HW,2013-06-14 07:31:00,
2013-06-14 01:36:00,42.0,32.6,30.04,SW,225,0.0,0.0,69,0.00,,,0.00,WUHU216HW,2013-06-14 07:36:00,
2013-06-14 01:41:00,42.4,33.0,30.04,WSW,248,1.1,1.1,69,0.00,,,0.00,WUHU216HW,2013-06-14 07:41:00,
2013-06-14 01:46:00,42.8,33.4,30.04,WSW,248,0.0,3.3,69,0.00,,,0.00,WUHU216HW,2013-06-14 07:46:00,
2013-06-14 01:51:00,42.9,33.1,30.04,WSW,248,0.0,3.3,68,0.00,,,0.00,WUHU216HW,2013-06-14 07:51:00,
2013-06-14 01:56:00,43.3,33.4,30.03,WSW,248,0.0,0.0,68,0.00,,,0.00,WUHU216HW,2013-06-14 07:56:00,
2013-06-14 02:01:00,43.1,32.9,30.04,WSW,248,0.0,0.0,67,0.00,,,0.00,WUHU216HW,2013-06-14 08:01:00,
2013-06-14 02:06:00,43.1,32.5,30.03,West,270,1.3,4.0,66,0.00,,,0.00,WUHU216HW,2013-06-14 08:06:00,
2013-06-14 02:11:00,43.1,32.9,30.04,WSW,248,3.5,4.0,67,0.00,,,0.00,WUHU216HW,2013-06-14 08:11:00,
2013-06-14 02:16:00,43.3,33.0,30.03,WSW,248,3.1,4.2,67,0.00,,,0.00,WUHU216HW,2013-06-14 08:16:00,
2013-06-14 02:22:00,43.1,32.5,30.03,WSW,248,2.9,4.2,66,0.00,,,0.00,WUHU216HW,2013-06-14 08:22:00,
2013-06-14 02:27:00,42.9,32.7,30.03,WSW,248,0.0,4.0,67,0.00,,,0.00,WUHU216HW,2013-06-14 08:27:00,
2013-06-14 02:32:00,42.6,32.4,30.03,West,270,0.0,3.8,67,0.00,,,0.00,WUHU216HW,2013-06-14 08:32:00,
2013-06-14 02:37:00,42.0,32.2,30.03,West,270,2.0,2.6,68,0.00,,,0.00,WUHU216HW,2013-06-14 08:37:00,
2013-06-14 02:42:00,41.7,31.9,30.03,West,270,0.0,4.0,68,0.00,,,0.00,WUHU216HW,2013-06-14 08:42:00,
2013-06-14 02:47:00,40.1,31.1,30.03,West,270,0.0,4.0,70,0.00,,,0.00,WUHU216HW,2013-06-14 08:47:00,
2013-06-14 02:52:00,39.3,31.0,30.03,WSW,248,0.0,0.0,72,0.00,,,0.00,WUHU216HW,2013-06-14 08:52:00,
2013-06-14 02:57:00,39.3,31.0,30.02,WSW,248,0.0,2.9,72,0.00,,,0.00,WUHU216HW,2013-06-14 08:57:00,
2013-06-14 03:02:00,39.3,31.0,30.02,WSW,248,0.0,3.5,72,0.00,,,0.00,WUHU216HW,2013-06-14 09:02:00,
2013-06-14 03:07:00,38.8,30.8,30.02,West,270,0.0,3.5,73,0.00,,,0.00,WUHU216HW,2013-06-14 09:07:00,
2013-06-14 03:12:00,38.4,30.8,30.02,WNW,293,0.0,0.0,74,0.00,,,0.00,WUHU216HW,2013-06-14 09:12:00,
2013-06-14 03:18:00,38.3,30.7,30.02,WNW,293,0.0,0.0,74,0.00,,,0.00,WUHU216HW,2013-06-14 09:18:00,
2013-06-14 03:22:00,38.3,31.0,30.03,WNW,293,0.0,0.0,75,0.00,,,0.00,WUHU216HW,2013-06-14 09:22:00,
2013-06-14 03:28:00,38.6,31.3,30.03,WNW,293,0.0,0.0,75,0.00,,,0.00,WUHU216HW,2013-06-14 09:28:00,
2013-06-14 03:33:00,39.0,31.7,30.03,West,270,0.0,0.0,75,0.00,,,0.00,WUHU216HW,2013-06-14 09:33:00,
2013-06-14 03:38:00,39.3,32.0,30.03,West,270,0.0,0.0,75,0.00,,,0.00,WUHU216HW,2013-06-14 09:38:00,
2013-06-14 03:43:00,39.7,32.4,30.03,West,270,1.3,5.1,75,0.00,,,0.00,WUHU216HW,2013-06-14 09:43:00,
2013-06-14 03:48:00,41.1,33.1,30.03,WSW,248,5.8,5.8,73,0.00,,,0.00,WUHU216HW,2013-06-14 09:48:00,
2013-06-14 03:53:00,42.2,33.7,30.03,West,270,0.0,7.1,71,0.00,,,0.00,WUHU216HW,2013-06-14 09:53:00,
2013-06-14 03:58:00,42.9,33.9,30.03,SW,225,4.0,7.1,70,0.00,,,0.00,WUHU216HW,2013-06-14 09:58:00,
2013-06-14 04:03:00,43.5,34.0,30.03,West,270,1.3,4.0,69,0.00,,,0.00,WUHU216HW,2013-06-14 10:03:00,
2013-06-14 04:08:00,43.5,33.6,30.03,WSW,248,1.5,2.9,68,0.00,,,0.00,WUHU216HW,2013-06-14 10:08:00,
2013-06-14 04:13:00,43.7,33.8,30.03,WSW,248,1.1,3.8,68,0.00,,,0.00,WUHU216HW,2013-06-14 10:13:00,
2013-06-14 04:18:00,42.2,32.0,30.03,WSW,248,0.0,3.8,67,0.00,,,0.00,WUHU216HW,2013-06-14 10:18:00,
2013-06-14 04:23:00,40.2,31.2,30.03,NW,315,0.0,0.0,70,0.00,,,0.00,WUHU216HW,2013-06-14 10:23:00,
2013-06-14 04:28:00,40.2,31.6,30.03,NW,315,0.0,0.0,71,0.00,,,0.00,WUHU216HW,2013-06-14 10:28:00,
2013-06-14 04:33:00,40.4,32.1,30.03,NW,315,0.0,0.0,72,0.00,,,0.00,WUHU216HW,2013-06-14 10:33:00,
2013-06-14 04:38:00,40.8,32.7,30.03,NW,315,0.0,0.0,73,0.00,,,0.00,WUHU216HW,2013-06-14 10:38:00,
2013-06-14 04:43:00,40.8,32.7,30.03,NW,315,0.0,0.0,73,0.00,,,0.00,WUHU216HW,2013-06-14 10:43:00,
2013-06-14 04:48:00,40.8,32.7,30.03,West,270,1.5,1.7,73,0.00,,,0.00,WUHU216HW,2013-06-14 10:48:00,
2013-06-14 04:54:00,41.5,33.5,30.03,WSW,248,1.7,2.0,73,0.00,,,0.00,WUHU216HW,2013-06-14 10:54:00,
2013-06-14 04:58:00,42.6,34.2,30.03,West,270,0.0,2.0,72,0.00,,,0.00,WUHU216HW,2013-06-14 10:58:00,
2013-06-14 05:04:00,43.5,34.4,30.04,West,270,2.6,2.6,70,0.00,,,0.00,WUHU216HW,2013-06-14 11:04:00,
2013-06-14 05:09:00,43.8,34.3,30.03,West,270,0.0,2.6,69,0.00,,,0.00,WUHU216HW,2013-06-14 11:09:00,
2013-06-14 05:14:00,43.5,34.0,30.03,WSW,248,0.0,2.4,69,0.00,,,0.00,WUHU216HW,2013-06-14 11:14:00,
2013-06-14 05:19:00,43.1,33.7,30.03,WSW,248,5.1,7.3,69,0.00,,,0.00,WUHU216HW,2013-06-14 11:19:00,
2013-06-14 05:24:00,43.5,34.0,30.03,West,270,4.4,7.3,69,0.00,,,0.00,WUHU216HW,2013-06-14 11:24:00,
2013-06-14 05:29:00,43.8,34.1,30.03,WSW,248,6.0,7.3,68,0.00,,,0.00,WUHU216HW,2013-06-14 11:29:00,
2013-06-14 05:34:00,44.2,33.9,30.03,West,270,7.3,7.3,67,0.00,,,0.00,WUHU216HW,2013-06-14 11:34:00,
2013-06-14 05:39:00,44.4,34.1,30.04,West,270,1.5,9.1,67,0.00,,,0.00,WUHU216HW,2013-06-14 11:39:00,
2013-06-14 05:44:00,44.7,34.4,30.04,West,270,0.0,9.1,67,0.00,,,0.00,WUHU216HW,2013-06-14 11:44:00,
2013-06-14 05:49:00,44.9,34.2,30.04,West,270,0.0,6.7,66,0.00,,,0.00,WUHU216HW,2013-06-14 11:49:00,
2013-06-14 05:54:00,44.9,34.2,30.04,West,270,2.4,5.8,66,0.00,,,0.00,WUHU216HW,2013-06-14 11:54:00,
2013-06-14 05:59:00,44.4,33.7,30.04,WNW,293,0.0,2.6,66,0.00,,,0.00,WUHU216HW,2013-06-14 11:59:00,
2013-06-14 06:04:00,44.0,34.1,30.04,West,270,1.5,1.5,68,0.00,,,0.00,WUHU216HW,2013-06-14 12:04:00,
2013-06-14 06:10:00,44.4,34.1,30.04,West,270,3.1,3.1,67,0.00,,,0.00,WUHU216HW,2013-06-14 12:10:00,
2013-06-14 06:15:00,44.9,34.6,30.04,WSW,248,0.0,3.1,67,0.00,,,0.00,WUHU216HW,2013-06-14 12:15:00,
2013-06-14 06:19:00,44.9,34.2,30.04,WNW,293,0.0,4.6,66,0.00,,,0.00,WUHU216HW,2013-06-14 12:19:00,
2013-06-14 06:24:00,45.1,34.4,30.04,West,270,0.0,4.6,66,0.00,,,0.00,WUHU216HW,2013-06-14 12:24:00,
2013-06-14 06:30:00,45.3,34.5,30.04,WNW,293,0.0,0.0,66,0.00,,,0.00,WUHU216HW,2013-06-14 12:30:00,
2013-06-14 06:35:00,45.5,34.7,30.04,West,270,1.7,1.7,66,0.00,,,0.00,WUHU216HW,2013-06-14 12:35:00,
2013-06-14 06:40:00,45.6,34.5,30.04,West,270,1.3,2.9,65,0.00,,,0.00,WUHU216HW,2013-06-14 12:40:00,
2013-06-14 06:45:00,46.2,35.0,30.05,WSW,248,5.5,5.5,65,0.00,,,0.00,WUHU216HW,2013-06-14 12:45:00,
2013-06-14 06:50:00,46.2,35.0,30.05,West,270,3.3,5.5,65,0.00,,,0.00,WUHU216HW,2013-06-14 12:50:00,
2013-06-14 06:55:00,46.5,35.4,30.05,WSW,248,0.0,5.5,65,0.00,,,0.00,WUHU216HW,2013-06-14 12:55:00,
2013-06-14 07:00:00,46.9,35.3,30.05,NW,315,0.0,2.4,64,0.00,,,0.00,WUHU216HW,2013-06-14 13:00:00,
2013-06-14 07:05:00,47.1,35.5,30.05,NW,315,3.1,3.1,64,0.00,,,0.00,WUHU216HW,2013-06-14 13:05:00,
2013-06-14 07:10:00,46.9,35.3,30.04,West,270,0.0,3.1,64,0.00,,,0.00,WUHU216HW,2013-06-14 13:10:00,
2013-06-14 07:15:00,46.9,35.3,30.04,West,270,2.9,2.9,64,0.00,,,0.00,WUHU216HW,2013-06-14 13:15:00,
2013-06-14 07:20:00,46.9,35.3,30.05,West,270,1.1,4.2,64,0.00,,,0.00,WUHU216HW,2013-06-14 13:20:00,
2013-06-14 07:26:00,46.9,35.5,30.05,WSW,248,5.8,6.0,64,0.00,,,0.00,WUHU216HW,2013-06-14 13:26:00,
2013-06-14 07:31:00,47.1,35.5,30.05,West,270,0.0,6.0,64,0.00,,,0.00,WUHU216HW,2013-06-14 13:31:00,
2013-06-14 07:36:00,47.3,35.7,30.04,West,270,2.6,4.0,64,0.00,,,0.00,WUHU216HW,2013-06-14 13:36:00,
2013-06-14 07:41:00,47.6,36.0,30.04,WSW,248,7.3,7.3,64,0.00,,,0.00,WUHU216HW,2013-06-14 13:41:00,
2013-06-14 07:46:00,48.0,36.0,30.04,WNW,293,0.0,7.3,63,0.00,,,0.00,WUHU216HW,2013-06-14 13:46:00,
2013-06-14 07:51:00,48.5,36.8,30.04,NW,315,0.0,4.6,64,0.00,,,0.00,WUHU216HW,2013-06-14 13:51:00,
2013-06-14 07:56:00,48.7,36.6,30.04,NW,315,2.2,4.6,63,0.00,,,0.00,WUHU216HW,2013-06-14 13:56:00,
2013-06-14 08:01:00,48.3,36.7,30.05,NNW,338,2.6,3.5,64,0.00,,,0.00,WUHU216HW,2013-06-14 14:01:00,
2013-06-14 08:06:00,48.0,36.3,30.04,NW,315,2.0,2.6,64,0.00,,,0.00,WUHU216HW,2013-06-14 14:06:00,
2013-06-14 08:11:00,48.0,36.2,30.05,NW,315,4.6,5.3,64,0.00,,,0.00,WUHU216HW,2013-06-14 14:11:00,
2013-06-14 08:16:00,48.0,36.0,30.05,West,270,1.3,5.3,63,0.00,,,0.00,WUHU216HW,2013-06-14 14:16:00,
2013-06-14 08:21:00,48.7,36.6,30.05,NW,315,4.2,8.9,63,0.00,,,0.00,WUHU216HW,2013-06-14 14:21:00,
2013-06-14 08:26:00,50.1,37.2,30.05,NW,315,6.7,8.9,61,0.00,,,0.00,WUHU216HW,2013-06-14 14:26:00,
2013-06-14 08:32:00,51.0,37.2,30.05,NNW,338,3.8,6.7,59,0.00,,,0.00,WUHU216HW,2013-06-14 14:32:00,
2013-06-14 08:37:00,51.4,37.5,30.05,NW,315,0.0,5.5,59,0.00,,,0.00,WUHU216HW,2013-06-14 14:37:00,
2013-06-14 08:42:00,51.4,37.5,30.05,WNW,293,0.0,5.5,59,0.00,,,0.00,WUHU216HW,2013-06-14 14:42:00,
2013-06-14 08:47:00,51.0,37.2,30.05,West,270,0.0,2.6,59,0.00,,,0.00,WUHU216HW,2013-06-14 14:47:00,
2013-06-14 08:52:00,51.4,37.5,30.05,NNW,338,4.9,4.9,59,0.00,,,0.00,WUHU216HW,2013-06-14 14:52:00,
2013-06-14 08:57:00,51.4,37.5,30.06,NNW,338,0.0,4.9,59,0.00,,,0.00,WUHU216HW,2013-06-14 14:57:00,
2013-06-14 09:02:00,51.8,37.4,30.06,WSW,248,3.1,5.5,58,0.00,,,0.00,WUHU216HW,2013-06-14 15:02:00,
2013-06-14 09:07:00,51.9,37.1,30.06,WNW,293,1.7,5.5,57,0.00,,,0.00,WUHU216HW,2013-06-14 15:07:00,
2013-06-14 09:12:00,51.8,36.9,30.06,WNW,293,3.5,10.5,57,0.00,,,0.00,WUHU216HW,2013-06-14 15:12:00,
2013-06-14 09:17:00,57.0,39.5,30.06,NW,315,7.8,10.5,52,0.00,,,0.00,WUHU216HW,2013-06-14 15:17:00,
2013-06-14 09:22:00,57.7,38.5,30.06,WNW,293,6.0,10.5,48,0.00,,,0.00,WUHU216HW,2013-06-14 15:22:00,
2013-06-14 09:27:00,57.5,39.1,30.06,WNW,293,4.2,10.5,50,0.00,,,0.00,WUHU216HW,2013-06-14 15:27:00,
2013-06-14 09:32:00,57.0,38.6,30.06,WNW,293,2.6,8.0,50,0.00,,,0.00,WUHU216HW,2013-06-14 15:32:00,
2013-06-14 09:37:00,55.0,37.1,30.06,NW,315,0.0,8.0,51,0.00,,,0.00,WUHU216HW,2013-06-14 15:37:00,
2013-06-14 09:42:00,54.6,37.7,30.06,NW,315,4.9,5.5,53,0.00,,,0.00,WUHU216HW,2013-06-14 15:42:00,
2013-06-14 09:48:00,53.7,36.9,30.06,North,0,2.0,7.1,53,0.00,,,0.00,WUHU216HW,2013-06-14 15:48:00,
2013-06-14 09:53:00,53.4,37.1,30.06,WNW,293,5.1,7.1,54,0.00,,,0.00,WUHU216HW,2013-06-14 15:53:00,
2013-06-14 09:58:00,52.7,37.3,30.06,NNW,338,8.7,15.6,56,0.00,,,0.00,WUHU216HW,2013-06-14 15:58:00,
2013-06-14 10:03:00,52.3,37.0,30.06,NW,315,10.5,15.6,56,0.00,,,0.00,WUHU216HW,2013-06-14 16:03:00,
2013-06-14 10:08:00,53.2,37.4,30.06,North,0,2.6,10.7,55,0.00,,,0.00,WUHU216HW,2013-06-14 16:08:00,
2013-06-14 10:13:00,52.8,37.5,30.06,North,0,8.7,10.7,56,0.00,,,0.00,WUHU216HW,2013-06-14 16:13:00,
2013-06-14 10:18:00,54.1,37.7,30.06,NW,315,5.1,10.9,54,0.00,,,0.00,WUHU216HW,2013-06-14 16:18:00,
2013-06-14 10:23:00,56.8,39.4,30.06,NW,315,5.8,10.9,52,0.00,,,0.00,WUHU216HW,2013-06-14 16:23:00,
2013-06-14 10:28:00,57.0,38.6,30.06,WNW,293,5.1,8.2,50,0.00,,,0.00,WUHU216HW,2013-06-14 16:28:00,
2013-06-14 10:33:00,57.9,39.4,30.06,WNW,293,0.4,8.2,50,0.00,,,0.00,WUHU216HW,2013-06-14 16:33:00,
2013-06-14 10:38:00,57.0,39.1,30.06,WNW,293,8.7,10.5,51,0.00,,,0.00,WUHU216HW,2013-06-14 16:38:00,
2013-06-14 10:43:00,60.0,39.7,30.07,WNW,293,5.1,10.5,48,0.00,,,0.00,WUHU216HW,2013-06-14 16:43:00,
2013-06-14 10:48:00,61.7,39.4,30.07,WNW,293,4.4,9.3,44,0.00,,,0.00,WUHU216HW,2013-06-14 16:48:00,
2013-06-14 10:53:00,62.2,40.4,30.06,WNW,293,2.9,9.3,45,0.00,,,0.00,WUHU216HW,2013-06-14 16:53:00,
2013-06-14 10:58:00,58.8,38.5,30.06,NW,315,1.1,9.1,47,0.00,,,0.00,WUHU216HW,2013-06-14 16:58:00,
2013-06-14 11:03:00,59.3,39.6,30.07,NW,315,0.0,13.1,48,0.00,,,0.00,WUHU216HW,2013-06-14 17:03:00,
2013-06-14 11:08:00,58.8,38.5,30.07,NW,315,6.9,13.1,47,0.00,,,0.00,WUHU216HW,2013-06-14 17:08:00,
2013-06-14 11:13:00,57.0,38.6,30.07,WNW,293,5.3,9.8,50,0.00,,,0.00,WUHU216HW,2013-06-14 17:13:00,
2013-06-14 11:19:00,56.8,38.9,30.06,NW,315,6.0,7.1,51,0.00,,,0.00,WUHU216HW,2013-06-14 17:19:00,
2013-06-14 11:24:00,56.1,38.6,30.07,WNW,293,0.8,7.1,52,0.00,,,0.00,WUHU216HW,2013-06-14 17:24:00,
2013-06-14 11:29:00,55.7,37.8,30.07,NW,315,7.1,12.5,51,0.00,,,0.00,WUHU216HW,2013-06-14 17:29:00,
2013-06-14 11:34:00,56.1,38.2,30.07,NNW,338,3.3,12.5,51,0.00,,,0.00,WUHU216HW,2013-06-14 17:34:00,
2013-06-14 11:39:00,56.3,38.5,30.07,WNW,293,6.0,9.1,51,0.00,,,0.00,WUHU216HW,2013-06-14 17:39:00,
2013-06-14 11:44:00,56.3,38.4,30.07,WNW,293,3.3,9.6,51,0.00,,,0.00,WUHU216HW,2013-06-14 17:44:00,
2013-06-14 11:49:00,57.3,39.0,30.07,WNW,293,9.3,9.6,50,0.00,,,0.00,WUHU216HW,2013-06-14 17:49:00,
2013-06-14 11:54:00,55.7,37.8,30.07,NW,315,0.0,9.3,51,0.00,,,0.00,WUHU216HW,2013-06-14 17:54:00,
2013-06-14 11:59:00,55.5,37.6,30.07,NW,315,3.8,9.1,51,0.00,,,0.00,WUHU216HW,2013-06-14 17:59:00,
2013-06-14 12:04:00,55.2,36.8,30.07,NNW,338,4.2,10.7,50,0.00,,,0.00,WUHU216HW,2013-06-14 18:04:00,
2013-06-14 12:09:00,55.2,37.8,30.07,NW,315,3.8,10.7,52,0.00,,,0.00,WUHU216HW,2013-06-14 18:09:00,
2013-06-14 12:14:00,56.1,38.2,30.07,NW,315,4.2,10.2,51,0.00,,,0.00,WUHU216HW,2013-06-14 18:14:00,
2013-06-14 12:19:00,56.1,37.7,30.07,WNW,293,7.6,12.7,50,0.00,,,0.00,WUHU216HW,2013-06-14 18:19:00,
2013-06-14 12:24:00,56.3,38.1,30.07,NW,315,4.6,12.7,51,0.00,,,0.00,WUHU216HW,2013-06-14 18:24:00,
2013-06-14 12:29:00,55.9,38.0,30.07,NW,315,7.1,16.5,51,0.00,,,0.00,WUHU216HW,2013-06-14 18:29:00,
2013-06-14 12:34:00,56.4,38.5,30.07,NNW,338,7.8,16.5,51,0.00,,,0.00,WUHU216HW,2013-06-14 18:34:00,
2013-06-14 12:39:00,55.9,37.5,30.08,North,0,7.6,10.9,51,0.00,,,0.00,WUHU216HW,2013-06-14 18:39:00,
2013-06-14 12:44:00,55.5,37.6,30.08,NW,315,6.0,11.6,51,0.00,,,0.00,WUHU216HW,2013-06-14 18:44:00,
2013-06-14 12:49:00,56.3,37.9,30.08,NNE,23,8.5,11.6,50,0.00,,,0.00,WUHU216HW,2013-06-14 18:49:00,
2013-06-14 12:54:00,57.3,38.4,30.08,WNW,293,2.2,11.6,49,0.00,,,0.00,WUHU216HW,2013-06-14 18:54:00,
2013-06-14 12:59:00,57.9,38.3,30.07,NNW,338,13.6,18.7,48,0.00,,,0.00,WUHU216HW,2013-06-14 18:59:00,
2013-06-14 13:04:00,56.8,37.3,30.08,NNW,338,9.1,18.7,48,0.00,,,0.00,WUHU216HW,2013-06-14 19:04:00,
2013-06-14 13:09:00,57.9,38.3,30.08,NW,315,4.4,15.8,48,0.00,,,0.00,WUHU216HW,2013-06-14 19:09:00,
2013-06-14 13:14:00,57.3,38.4,30.08,NNW,338,11.6,18.5,49,0.00,,,0.00,WUHU216HW,2013-06-14 19:14:00,
2013-06-14 13:19:00,56.3,37.9,30.08,NNW,338,7.3,18.5,50,0.00,,,0.00,WUHU216HW,2013-06-14 19:19:00,
2013-06-14 13:24:00,55.9,37.5,30.08,NW,315,12.3,12.3,50,0.00,,,0.00,WUHU216HW,2013-06-14 19:24:00,
2013-06-14 13:30:00,57.0,37.5,30.08,WNW,293,7.1,14.7,50,0.00,,,0.00,WUHU216HW,2013-06-14 19:30:00,
2013-06-14 13:35:00,57.7,38.1,30.08,NNW,338,9.1,16.5,48,0.00,,,0.00,WUHU216HW,2013-06-14 19:35:00,
2013-06-14 13:40:00,56.4,37.5,30.08,North,0,17.4,17.4,49,0.00,,,0.00,WUHU216HW,2013-06-14 19:40:00,
2013-06-14 13:45:00,55.9,37.1,30.08,NW,315,8.5,17.4,49,0.00,,,0.00,WUHU216HW,2013-06-14 19:45:00,
2013-06-14 13:50:00,55.7,37.5,30.08,North,0,13.8,14.9,50,0.00,,,0.00,WUHU216HW,2013-06-14 19:50:00,
2013-06-14 13:55:00,55.2,36.8,30.09,NNW,338,8.7,14.9,50,0.00,,,0.00,WUHU216HW,2013-06-14 19:55:00,
2013-06-14 14:00:00,55.5,37.2,30.09,WNW,293,3.1,16.1,50,0.00,,,0.00,WUHU216HW,2013-06-14 20:00:00,
2013-06-14 14:05:00,56.4,38.5,30.09,North,0,10.7,16.1,51,0.00,,,0.00,WUHU216HW,2013-06-14 20:05:00,
2013-06-14 14:10:00,58.8,39.1,30.08,NNW,338,9.6,10.7,48,0.00,,,0.00,WUHU216HW,2013-06-14 20:10:00,
2013-06-14 14:15:00,57.7,39.3,30.08,North,0,10.7,10.7,50,0.00,,,0.00,WUHU216HW,2013-06-14 20:15:00,
2013-06-14 14:20:00,57.3,39.0,30.08,NW,315,4.9,10.7,50,0.00,,,0.00,WUHU216HW,2013-06-14 20:20:00,
2013-06-14 14:25:00,58.8,39.1,30.08,West,270,3.3,10.7,48,0.00,,,0.00,WUHU216HW,2013-06-14 20:25:00,
2013-06-14 14:30:00,59.1,38.3,30.08,WNW,293,3.1,10.5,46,0.00,,,0.00,WUHU216HW,2013-06-14 20:30:00,
2013-06-14 14:35:00,59.1,38.8,30.08,West,270,1.3,10.5,47,0.00,,,0.00,WUHU216HW,2013-06-14 20:35:00,
2013-06-14 14:40:00,57.7,38.1,30.08,NW,315,8.9,10.5,48,0.00,,,0.00,WUHU216HW,2013-06-14 20:40:00,
2013-06-14 14:45:00,57.9,38.3,30.08,NNW,338,8.7,10.5,48,0.00,,,0.00,WUHU216HW,2013-06-14 20:45:00,
2013-06-14 14:50:00,57.5,38.5,30.09,West,270,7.6,12.5,49,0.00,,,0.00,WUHU216HW,2013-06-14 20:50:00,
2013-06-14 14:55:00,57.9,37.7,30.08,West,270,4.9,12.5,48,0.00,,,0.00,WUHU216HW,2013-06-14 20:55:00,
2013-06-14 15:00:00,57.3,37.8,30.09,NW,315,12.9,14.3,48,0.00,,,0.00,WUHU216HW,2013-06-14 21:00:00,
2013-06-14 15:06:00,56.3,37.3,30.08,NW,315,1.3,14.3,49,0.00,,,0.00,WUHU216HW,2013-06-14 21:06:00,
2013-06-14 15:11:00,56.6,37.1,30.09,NW,315,4.2,12.3,48,0.00,,,0.00,WUHU216HW,2013-06-14 21:11:00,
2013-06-14 15:16:00,57.2,38.2,30.09,WNW,293,6.4,16.5,49,0.00,,,0.00,WUHU216HW,2013-06-14 21:16:00,
2013-06-14 15:21:00,57.0,37.5,30.09,WNW,293,10.0,16.5,48,0.00,,,0.00,WUHU216HW,2013-06-14 21:21:00,
2013-06-14 15:26:00,55.4,37.0,30.09,NW,315,2.6,21.9,50,0.00,,,0.00,WUHU216HW,2013-06-14 21:26:00,
2013-06-14 15:31:00,55.5,37.2,30.09,NNW,338,5.3,21.9,50,0.00,,,0.00,WUHU216HW,2013-06-14 21:31:00,
2013-06-14 15:36:00,56.4,38.4,30.09,NW,315,4.4,8.0,50,0.00,,,0.00,WUHU216HW,2013-06-14 21:36:00,
2013-06-14 15:41:00,55.9,37.2,30.09,WNW,293,7.6,9.6,50,0.00,,,0.00,WUHU216HW,2013-06-14 21:41:00,
2013-06-14 15:46:00,55.5,37.6,30.09,West,270,2.0,9.6,51,0.00,,,0.00,WUHU216HW,2013-06-14 21:46:00,
2013-06-14 15:51:00,55.9,38.0,30.09,WNW,293,3.1,7.6,51,0.00,,,0.00,WUHU216HW,2013-06-14 21:51:00,
2013-06-14 15:56:00,56.1,38.2,30.09,NW,315,4.0,6.2,51,0.00,,,0.00,WUHU216HW,2013-06-14 21:56:00,
2013-06-14 16:01:00,55.7,37.8,30.09,WSW,248,3.5,8.9,51,0.00,,,0.00,WUHU216HW,2013-06-14 22:01:00,
2013-06-14 16:06:00,55.9,37.8,30.09,WNW,293,0.0,8.9,51,0.00,,,0.00,WUHU216HW,2013-06-14 22:06:00,
2013-06-14 16:12:00,57.0,38.6,30.09,NW,315,6.4,7.3,50,0.00,,,0.00,WUHU216HW,2013-06-14 22:12:00,
2013-06-14 16:17:00,56.1,37.7,30.09,WNW,293,4.2,6.4,50,0.00,,,0.00,WUHU216HW,2013-06-14 22:17:00,
2013-06-14 16:22:00,55.5,37.8,30.09,NW,315,5.5,7.3,51,0.00,,,0.00,WUHU216HW,2013-06-14 22:22:00,
2013-06-14 16:27:00,55.2,37.8,30.09,NW,315,5.8,10.9,52,0.00,,,0.00,WUHU216HW,2013-06-14 22:27:00,
2013-06-14 16:32:00,55.5,37.6,30.09,NW,315,0.0,10.9,51,0.00,,,0.00,WUHU216HW,2013-06-14 22:32:00,
2013-06-14 16:37:00,57.7,38.7,30.09,NW,315,7.8,8.7,49,0.00,,,0.00,WUHU216HW,2013-06-14 22:37:00,
2013-06-14 16:42:00,56.3,38.4,30.09,NW,315,7.3,13.1,51,0.00,,,0.00,WUHU216HW,2013-06-14 22:42:00,
2013-06-14 16:47:00,58.2,40.2,30.09,West,270,8.9,10.9,51,0.00,,,0.00,WUHU216HW,2013-06-14 22:47:00,
2013-06-14 16:52:00,58.8,39.1,30.09,WNW,293,3.5,10.7,48,0.00,,,0.00,WUHU216HW,2013-06-14 22:52:00,
2013-06-14 16:57:00,58.1,39.0,30.09,WNW,293,9.8,10.7,49,0.00,,,0.00,WUHU216HW,2013-06-14 22:57:00,
2013-06-14 17:02:00,58.8,39.1,30.09,NNW,338,7.1,9.8,48,0.00,,,0.00,WUHU216HW,2013-06-14 23:02:00,
2013-06-14 17:07:00,58.2,39.2,30.09,WNW,293,5.1,10.9,49,0.00,,,0.00,WUHU216HW,2013-06-14 23:07:00,
2013-06-14 17:12:00,57.7,38.7,30.10,WNW,293,6.7,10.9,49,0.00,,,0.00,WUHU216HW,2013-06-14 23:12:00,
2013-06-14 17:17:00,57.9,38.9,30.10,NNW,338,3.3,10.9,49,0.00,,,0.00,WUHU216HW,2013-06-14 23:17:00,
2013-06-14 17:22:00,56.3,38.4,30.10,NW,315,6.2,13.1,51,0.00,,,0.00,WUHU216HW,2013-06-14 23:22:00,
2013-06-14 17:27:00,54.6,37.3,30.10,NW,315,5.5,13.1,52,0.00,,,0.00,WUHU216HW,2013-06-14 23:27:00,
2013-06-14 17:32:00,54.3,37.9,30.10,NW,315,1.3,10.0,54,0.00,,,0.00,WUHU216HW,2013-06-14 23:32:00,
2013-06-14 17:38:00,54.6,37.7,30.10,NNE,23,5.5,8.5,53,0.00,,,0.00,WUHU216HW,2013-06-14 23:38:00,
2013-06-14 17:43:00,53.7,37.9,30.10,NW,315,6.9,7.6,55,0.00,,,0.00,WUHU216HW,2013-06-14 23:43:00,
2013-06-14 17:48:00,53.9,37.6,30.10,WNW,293,6.4,7.8,54,0.00,,,0.00,WUHU216HW,2013-06-14 23:48:00,
2013-06-14 17:53:00,54.1,38.2,30.10,NW,315,2.6,7.8,55,0.00,,,0.00,WUHU216HW,2013-06-14 23:53:00,
2013-06-14 17:58:00,53.7,37.9,30.10,NNW,338,11.1,12.0,55,0.00,,,0.00,WUHU216HW,2013-06-14 23:58:00,
2013-06-14 18:03:00,54.3,37.9,30.10,NNE,23,10.0,12.0,54,0.00,,,0.00,WUHU216HW,2013-06-15 00:03:00,
2013-06-14 18:08:00,55.4,38.4,30.10,NNW,338,10.9,10.9,53,0.00,,,0.00,WUHU216HW,2013-06-15 00:08:00,
2013-06-14 18:13:00,56.4,39.5,30.10,NNW,338,2.4,10.9,53,0.00,,,0.00,WUHU216HW,2013-06-15 00:13:00,
2013-06-14 18:18:00,55.2,38.7,30.10,NNW,338,6.2,8.5,54,0.00,,,0.00,WUHU216HW,2013-06-15 00:18:00,
2013-06-14 18:23:00,56.4,39.5,30.09,West,270,1.5,8.9,53,0.00,,,0.00,WUHU216HW,2013-06-15 00:23:00,
2013-06-14 18:28:00,58.6,41.0,30.10,NW,315,2.2,8.9,52,0.00,,,0.00,WUHU216HW,2013-06-15 00:28:00,
2013-06-14 18:33:00,64.2,41.7,30.10,NW,315,6.7,6.7,44,0.00,,,0.00,WUHU216HW,2013-06-15 00:33:00,
2013-06-14 18:38:00,61.1,40.1,30.10,NW,315,4.2,10.5,45,0.00,,,0.00,WUHU216HW,2013-06-15 00:38:00,
2013-06-14 18:43:00,57.0,39.1,30.10,NNW,338,7.1,10.5,52,0.00,,,0.00,WUHU216HW,2013-06-15 00:43:00,
2013-06-14 18:48:00,55.2,38.2,30.09,NW,315,2.6,7.1,53,0.00,,,0.00,WUHU216HW,2013-06-15 00:48:00,
2013-06-14 18:53:00,54.6,38.2,30.09,WNW,293,4.9,10.0,54,0.00,,,0.00,WUHU216HW,2013-06-15 00:53:00,
2013-06-14 18:59:00,54.3,38.4,30.09,NW,315,0.0,10.0,55,0.00,,,0.00,WUHU216HW,2013-06-15 00:59:00,
2013-06-14 19:04:00,54.1,38.2,30.09,North,0,0.0,7.8,55,0.00,,,0.00,WUHU216HW,2013-06-15 01:04:00,
2013-06-14 19:09:00,53.4,38.3,30.09,NW,315,1.5,9.6,56,0.00,,,0.00,WUHU216HW,2013-06-15 01:09:00,
2013-06-14 19:14:00,53.4,38.5,30.09,NNW,338,4.6,9.6,57,0.00,,,0.00,WUHU216HW,2013-06-15 01:14:00,
2013-06-14 19:19:00,53.4,38.5,30.09,NW,315,2.9,8.7,57,0.00,,,0.00,WUHU216HW,2013-06-15 01:19:00,
2013-06-14 19:24:00,53.4,38.9,30.09,NW,315,5.3,5.8,58,0.00,,,0.00,WUHU216HW,2013-06-15 01:24:00,
2013-06-14 19:29:00,53.4,38.9,30.09,WNW,293,0.0,5.8,58,0.00,,,0.00,WUHU216HW,2013-06-15 01:29:00,
2013-06-14 19:34:00,53.4,38.9,30.09,WNW,293,8.7,8.7,58,0.00,,,0.00,WUHU216HW,2013-06-15 01:34:00,
2013-06-14 19:39:00,53.4,38.9,30.09,NNW,338,2.9,9.3,58,0.00,,,0.00,WUHU216HW,2013-06-15 01:39:00,
2013-06-14 19:44:00,53.2,38.8,30.09,NW,315,3.5,9.3,58,0.00,,,0.00,WUHU216HW,2013-06-15 01:44:00,
2013-06-14 19:49:00,53.2,38.8,30.09,NW,315,4.9,8.2,58,0.00,,,0.00,WUHU216HW,2013-06-15 01:49:00,
2013-06-14 19:54:00,53.4,38.9,30.09,NW,315,1.5,8.2,58,0.00,,,0.00,WUHU216HW,2013-06-15 01:54:00,
2013-06-14 19:59:00,54.3,39.3,30.09,NW,315,3.5,5.1,57,0.00,,,0.00,WUHU216HW,2013-06-15 01:59:00,
2013-06-14 20:04:00,53.9,39.0,30.09,North,0,0.0,10.0,57,0.00,,,0.00,WUHU216HW,2013-06-15 02:04:00,
2013-06-14 20:09:00,53.4,38.9,30.10,NW,315,5.8,10.0,58,0.00,,,0.00,WUHU216HW,2013-06-15 02:09:00,
2013-06-14 20:14:00,53.4,38.5,30.10,WNW,293,0.0,6.9,57,0.00,,,0.00,WUHU216HW,2013-06-15 02:14:00,
2013-06-14 20:20:00,53.2,38.8,30.09,NW,315,2.0,6.9,58,0.00,,,0.00,WUHU216HW,2013-06-15 02:20:00,
2013-06-14 20:25:00,53.2,38.8,30.10,NW,315,4.2,9.8,58,0.00,,,0.00,WUHU216HW,2013-06-15 02:25:00,
2013-06-14 20:30:00,52.8,38.4,30.10,NNW,338,2.6,9.8,58,0.00,,,0.00,WUHU216HW,2013-06-15 02:30:00,
2013-06-14 20:35:00,52.5,38.1,30.09,WNW,293,2.4,7.6,58,0.00,,,0.00,WUHU216HW,2013-06-15 02:35:00,
2013-06-14 20:40:00,52.3,37.9,30.09,NW,315,5.5,7.6,58,0.00,,,0.00,WUHU216HW,2013-06-15 02:40:00,
2013-06-14 20:45:00,52.3,37.9,30.09,WNW,293,2.9,6.4,58,0.00,,,0.00,WUHU216HW,2013-06-15 02:45:00,
2013-06-14 20:50:00,52.3,37.9,30.10,NW,315,5.1,6.4,58,0.00,,,0.00,WUHU216HW,2013-06-15 02:50:00,
2013-06-14 20:55:00,51.9,38.1,30.10,WNW,293,0.0,6.2,59,0.00,,,0.00,WUHU216HW,2013-06-15 02:55:00,
2013-06-14 21:00:00,51.9,38.0,30.10,NW,315,0.0,4.2,59,0.00,,,0.00,WUHU216HW,2013-06-15 03:00:00,
2013-06-14 21:05:00,51.9,38.0,30.09,NW,315,4.6,4.6,59,0.00,,,0.00,WUHU216HW,2013-06-15 03:05:00,
2013-06-14 21:10:00,51.8,37.8,30.09,NW,315,0.0,5.1,59,0.00,,,0.00,WUHU216HW,2013-06-15 03:10:00,
2013-06-14 21:16:00,51.4,38.3,30.09,West,270,0.0,5.1,61,0.00,,,0.00,WUHU216HW,2013-06-15 03:16:00,
2013-06-14 21:21:00,50.7,37.7,30.09,NW,315,0.0,5.8,61,0.00,,,0.00,WUHU216HW,2013-06-15 03:21:00,
2013-06-14 21:26:00,50.5,37.9,30.09,WNW,293,3.1,5.8,62,0.00,,,0.00,WUHU216HW,2013-06-15 03:26:00,
2013-06-14 21:31:00,50.3,38.1,30.10,WNW,293,1.7,5.1,63,0.00,,,0.00,WUHU216HW,2013-06-15 03:31:00,
2013-06-14 21:36:00,50.1,37.6,30.10,NW,315,3.3,6.0,62,0.00,,,0.00,WUHU216HW,2013-06-15 03:36:00,
2013-06-14 21:41:00,50.1,37.6,30.10,NW,315,0.0,6.0,62,0.00,,,0.00,WUHU216HW,2013-06-15 03:41:00,
2013-06-14 21:46:00,50.1,37.6,30.10,West,270,1.3,5.1,62,0.00,,,0.00,WUHU216HW,2013-06-15 03:46:00,
2013-06-14 21:51:00,50.1,37.6,30.10,WNW,293,1.3,5.1,62,0.00,,,0.00,WUHU216HW,2013-06-15 03:51:00,
2013-06-14 21:56:00,49.8,37.6,30.10,WNW,293,4.0,5.1,63,0.00,,,0.00,WUHU216HW,2013-06-15 03:56:00,
2013-06-14 22:01:00,49.8,37.6,30.10,WNW,293,10.5,10.5,63,0.00,,,0.00,WUHU216HW,2013-06-15 04:01:00,
2013-06-14 22:03:00,50.1,37.6,30.10,NW,315,1.3,10.5,62,0.00,,,0.00,WUHU216HW,2013-06-15 04:03:00,
2013-06-14 22:08:00,49.8,37.6,30.10,WNW,293,5.3,10.5,63,0.00,,,0.00,WUHU216HW,2013-06-15 04:08:00,
2013-06-14 22:13:00,49.8,37.6,30.10,WNW,293,4.0,5.3,63,0.00,,,0.00,WUHU216HW,2013-06-15 04:13:00,
2013-06-14 22:18:00,49.6,37.5,30.10,WNW,293,0.0,4.6,63,0.00,,,0.00,WUHU216HW,2013-06-15 04:18:00,
2013-06-14 22:23:00,49.2,37.5,30.10,West,270,0.0,2.6,64,0.00,,,0.00,WUHU216HW,2013-06-15 04:23:00,
2013-06-14 22:28:00,49.1,37.4,30.10,WSW,248,0.0,2.9,64,0.00,,,0.00,WUHU216HW,2013-06-15 04:28:00,
2013-06-14 22:33:00,48.7,37.4,30.10,WSW,248,0.0,2.9,65,0.00,,,0.00,WUHU216HW,2013-06-15 04:33:00,
2013-06-14 22:39:00,48.7,37.4,30.11,West,270,0.0,1.5,65,0.00,,,0.00,WUHU216HW,2013-06-15 04:39:00,
2013-06-14 22:44:00,48.7,37.4,30.11,West,270,0.0,1.5,65,0.00,,,0.00,WUHU216HW,2013-06-15 04:44:00,
2013-06-14 22:49:00,48.5,37.2,30.10,West,270,0.0,1.5,65,0.00,,,0.00,WUHU216HW,2013-06-15 04:49:00,
2013-06-14 22:54:00,48.7,37.4,30.10,West,270,0.0,0.0,65,0.00,,,0.00,WUHU216HW,2013-06-15 04:54:00,
2013-06-14 22:59:00,48.5,37.2,30.10,West,270,0.0,2.0,65,0.00,,,0.00,WUHU216HW,2013-06-15 04:59:00,
2013-06-14 23:04:00,48.5,37.2,30.10,WSW,248,4.4,4.4,65,0.00,,,0.00,WUHU216HW,2013-06-15 05:04:00,
2013-06-14 23:09:00,48.5,37.2,30.10,West,270,0.0,4.6,65,0.00,,,0.00,WUHU216HW,2013-06-15 05:09:00,
2013-06-14 23:14:00,48.5,37.2,30.10,West,270,0.0,3.3,65,0.00,,,0.00,WUHU216HW,2013-06-15 05:14:00,
2013-06-14 23:19:00,48.2,37.3,30.10,WSW,248,2.6,3.3,66,0.00,,,0.00,WUHU216HW,2013-06-15 05:19:00,
2013-06-14 23:24:00,48.0,37.1,30.10,West,270,0.0,2.9,66,0.00,,,0.00,WUHU216HW,2013-06-15 05:24:00,
2013-06-14 23:29:00,47.8,36.9,30.10,WSW,248,2.6,4.2,66,0.00,,,0.00,WUHU216HW,2013-06-15 05:29:00,
2013-06-14 23:34:00,47.8,36.9,30.10,West,270,0.0,4.2,66,0.00,,,0.00,WUHU216HW,2013-06-15 05:34:00,
2013-06-14 23:39:00,47.8,36.9,30.10,WSW,248,6.0,6.0,66,0.00,,,0.00,WUHU216HW,2013-06-15 05:39:00,
2013-06-14 23:44:00,47.8,36.9,30.10,West,270,0.0,6.0,66,0.00,,,0.00,WUHU216HW,2013-06-15 05:44:00,
2013-06-14 23:49:00,47.8,36.9,30.10,WSW,248,0.0,6.0,66,0.00,,,0.00,WUHU216HW,2013-06-15 05:49:00,
2013-06-14 23:54:00,48.0,37.1,30.10,WSW,248,2.4,5.3,66,0.00,,,0.00,WUHU216HW,2013-06-15 05:54:00,